Hibbing, MN

10:25 PM CDT on July 22, 2017 (GMT -0500)
Chisholm-hibbing

Weather History for KHIB - January, 2014

Change the Weather History Date:

Tuesday, January 7, 2014

  Actual Average Record
Temperature  
Mean Temperature -14 °F -  
Max Temperature -7 °F 10 °F 46 °F (2003)
Min Temperature -22 °F -11 °F -35 °F (1973)
Degree Days  
Heating Degree Days 80    
Moisture  
Dew Point -21 °F    
Average Humidity 68    
Maximum Humidity 77    
Minimum Humidity 59    
Precipitation  
Precipitation 0.00 in - - ()
Sea Level Pressure  
Sea Level Pressure 30.10 in    
Wind  
Wind Speed 7 mph (WNW)    
Max Wind Speed 14 mph    
Max Gust Speed 17 mph    
Visibility 9 miles    
Events      
Averages and records for this station are not official NWS values.
T = Trace of Precipitation, MM = Missing Value Source: NWS Daily Summary

Daily Weather History Graph

Daily Weather History Graph

Search for Another Location

Airport or City:

Trip Planner

Search our weather history database for the weather conditions in past years. The results will help you decide how hot, cold, wet, or windy it might be!

Date:

Astronomy

Jan. 07, 2014 Rise Set
Actual Time 7:57 AM CST 4:37 PM CST
Civil Twilight 7:22 AM CST 5:13 PM CST
Nautical Twilight 6:43 AM CST 5:51 PM CST
Astronomical Twilight 6:06 AM CST 6:28 PM CST
Moon 11:15 AM CST (1/7) No Moon Set
Length of Visible Light 9h 50m
Length of Day
8h 40m
Waxing Crescent, 46% of the Moon is Illuminated
Jan 7
Waxing Crescent
Jan 7
First Quarter
Jan 15
Full
Jan 23
Last Quarter
Jan 30
New

Hourly Weather History & Observations

Time (CST) Temp. Windchill Dew Point Humidity Pressure Visibility Wind Dir Wind Speed Gust Speed Precip Events Conditions
12:28 AM -22.0 °F -39.4 °F -29.2 °F 69% 29.94 in 8.0 mi WNW 6.9 mph - N/A   Mostly Cloudy
12:53 AM -22.0 °F -39.4 °F -29.0 °F 70% 30.10 in 10.0 mi West 6.9 mph - N/A   Overcast
1:31 AM -22.0 °F -33.0 °F -29.2 °F 69% 29.94 in 10.0 mi West 3.5 mph - N/A   Overcast
1:53 AM -22.0 °F -37.7 °F -29.0 °F 70% 30.11 in 9.0 mi West 5.8 mph - N/A   Mostly Cloudy
2:06 AM -22.0 °F -37.7 °F -29.2 °F 69% 29.95 in 9.0 mi West 5.8 mph - N/A   Scattered Clouds
2:53 AM -22.0 °F -35.6 °F -29.0 °F 70% 30.11 in 10.0 mi West 4.6 mph - N/A   Clear
3:53 AM -20.0 °F -38.6 °F -27.0 °F 70% 30.09 in 10.0 mi West 8.1 mph - N/A   Clear
4:21 AM -18.4 °F -35.1 °F -25.6 °F 70% 29.93 in 7.0 mi West 6.9 mph - N/A   Mostly Cloudy
4:53 AM -20.0 °F -30.7 °F -26.0 °F 74% 30.09 in 10.0 mi West 3.5 mph - N/A   Mostly Cloudy
5:53 AM -18.9 °F -32.0 °F -26.0 °F 70% 30.08 in 7.0 mi West 4.6 mph - N/A   Overcast
6:53 AM -16.1 °F -30.6 °F -22.0 °F 74% 30.08 in 8.0 mi WNW 5.8 mph - N/A   Overcast
7:48 AM -14.8 °F -30.8 °F -22.0 °F 70% 29.94 in 9.0 mi West 6.9 mph - N/A   Overcast
7:53 AM -15.0 °F -33.7 °F -22.0 °F 71% 30.10 in 8.0 mi West 9.2 mph - N/A   Overcast
8:17 AM -14.8 °F -33.5 °F -22.0 °F 70% 29.94 in 6.0 mi West 9.2 mph - N/A   Haze
8:53 AM -14.1 °F -29.9 °F -22.0 °F 68% 30.13 in 6.0 mi West 6.9 mph - N/A   Haze
9:53 AM -13.0 °F -32.4 °F -20.9 °F 68% 30.14 in 10.0 mi NW 10.4 mph - N/A   Scattered Clouds
10:30 AM -11.2 °F -32.1 °F -20.2 °F 64% 29.99 in 7.0 mi NW 12.7 mph - N/A   Mostly Cloudy
10:53 AM -11.0 °F -30.9 °F -20.9 °F 62% 30.15 in 7.0 mi NW 11.5 mph - 0.00 in   Overcast
11:04 AM -11.2 °F -32.1 °F -20.2 °F 64% 29.99 in 10.0 mi NW 12.7 mph - N/A   Mostly Cloudy
11:11 AM -11.2 °F -31.1 °F -20.2 °F 64% 29.99 in 10.0 mi NW 11.5 mph - N/A   Mostly Cloudy
11:27 AM -9.4 °F -27.9 °F -20.2 °F 59% 29.99 in 10.0 mi NW 10.4 mph - N/A   Partly Cloudy
11:53 AM -9.9 °F -30.5 °F -20.0 °F 61% 30.15 in 10.0 mi NW 12.7 mph - N/A   Clear
12:20 PM -9.4 °F -27.9 °F -18.4 °F 65% 29.98 in 10.0 mi NW 10.4 mph - N/A   Mostly Cloudy
12:53 PM -9.0 °F -28.4 °F -18.0 °F 65% 30.14 in 10.0 mi NW 11.5 mph - N/A   Scattered Clouds
1:53 PM -7.1 °F -27.6 °F -18.0 °F 59% 30.16 in 10.0 mi NW 13.8 mph - N/A   Clear
2:32 PM -7.6 °F -27.5 °F -16.6 °F 65% 30.03 in 10.0 mi NNW 12.7 mph - N/A   Mostly Cloudy
2:53 PM -7.1 °F -26.8 °F -17.0 °F 62% 30.19 in 9.0 mi NW 12.7 mph - N/A   Overcast
3:53 PM -8.0 °F -25.0 °F -17.0 °F 65% 30.21 in 10.0 mi NW 9.2 mph - N/A   Overcast
4:53 PM -8.0 °F - -17.0 °F 65% 30.22 in 10.0 mi Calm Calm - N/A   Mostly Cloudy
5:51 PM -11.2 °F -20.6 °F -18.4 °F 70% 30.07 in 10.0 mi West 3.5 mph - N/A   Scattered Clouds
5:53 PM -11.9 °F -23.8 °F -18.9 °F 71% 30.23 in 10.0 mi West 4.6 mph - N/A   Partly Cloudy
6:51 PM -11.2 °F -20.6 °F -18.4 °F 70% 30.08 in 10.0 mi West 3.5 mph - N/A   Mostly Cloudy
6:53 PM -11.9 °F -21.5 °F -18.9 °F 71% 30.23 in 10.0 mi West 3.5 mph - N/A   Mostly Cloudy
7:53 PM -11.9 °F -23.8 °F -18.9 °F 71% 30.25 in 10.0 mi West 4.6 mph - N/A   Overcast
8:53 PM -9.9 °F -23.4 °F -18.0 °F 68% 30.25 in 10.0 mi WNW 5.8 mph - N/A   Overcast
9:53 PM -11.0 °F -27.6 °F -18.0 °F 71% 30.27 in 10.0 mi WNW 8.1 mph - N/A   Mostly Cloudy
10:11 PM -11.2 °F -29.0 °F -18.4 °F 70% 30.12 in 10.0 mi WNW 9.2 mph - N/A   Scattered Clouds
10:21 PM -11.2 °F -27.8 °F -18.4 °F 70% 30.12 in 10.0 mi NW 8.1 mph 17.3 mph N/A   Mostly Cloudy
10:53 PM -11.9 °F -28.7 °F -18.0 °F 74% 30.28 in 10.0 mi WNW 8.1 mph - N/A   Mostly Cloudy
11:03 PM -11.2 °F -26.4 °F -18.4 °F 70% 30.13 in 10.0 mi WNW 6.9 mph - N/A   Mostly Cloudy
11:23 PM -11.2 °F -24.8 °F -18.4 °F 70% 30.13 in 10.0 mi West 5.8 mph - N/A   Overcast
11:34 PM -11.2 °F -24.8 °F -16.6 °F 77% 30.14 in 10.0 mi West 5.8 mph - N/A   Overcast
11:53 PM -9.9 °F -23.4 °F -17.0 °F 71% 30.29 in 10.0 mi WNW 5.8 mph - N/A   Overcast